Location: Eurasberg
(48.3353°N, 11.0839°E)
Time: 14:08:31
(UTC+00:00)

Timation 1 Rocket - Pass Details

Date: 20 April 2026
Orbit: 895 x 908 km, 70.0° (Epoch: 14 May)

Event Time Altitude Azimuth Distance (km) Brightness Sun altitude
Exits shadow 23:37:27 60° 84° (E) 1,036 4.6 -29.7°
Drops below altitude 10° 23:42:46 10° 35° (NE) 2,602 7.5 -29.5°
Sets 23:45:18 0° 32° (NNE) 3,548 8.4 -29.5°
